Time,TemperatureF,DewpointF,PressureIn,WindDirection,WindDirectionDegrees,WindSpeedMPH,WindSpeedGustMPH,Humidity,HourlyPrecipIn,Conditions,Clouds,dailyrainin,SoftwareType,DateUTC
2013-04-01 00:02:00,43.1,40.7,29.69,North,-999,0.0,0.0,91,0.00,,,-99.99,WeatherLink 5.7,2013-04-01 04:02:00,
2013-04-01 00:11:00,43.1,40.7,29.69,North,-999,0.0,1.0,91,0.00,,,-99.99,WeatherLink 5.7,2013-04-01 04:11:00,
2013-04-01 00:21:00,43.1,40.7,29.69,North,-999,0.0,0.0,91,0.00,,,-99.99,WeatherLink 5.7,2013-04-01 04:21:00,
2013-04-01 00:32:00,43.1,40.7,29.69,North,-999,0.0,0.0,91,0.00,,,-99.99,WeatherLink 5.7,2013-04-01 04:32:00,
2013-04-01 00:41:00,43.1,40.7,29.68,NNW,337,1.0,3.0,91,0.00,,,-99.99,WeatherLink 5.7,2013-04-01 04:41:00,
2013-04-01 00:51:00,43.2,40.8,29.68,NNW,337,0.0,2.0,91,0.00,,,-99.99,WeatherLink 5.7,2013-04-01 04:51:00,
2013-04-01 01:02:00,43.1,40.7,29.69,NNW,337,0.0,1.0,91,0.00,,,-99.99,WeatherLink 5.7,2013-04-01 05:02:00,
2013-04-01 01:12:00,43.1,40.7,29.69,NNW,337,0.0,2.0,91,0.00,,,-99.99,WeatherLink 5.7,2013-04-01 05:12:00,
2013-04-01 01:22:00,43.1,40.7,29.68,North,0,0.0,3.0,91,0.00,,,-99.99,WeatherLink 5.7,2013-04-01 05:22:00,
2013-04-01 01:31:00,43.2,40.8,29.68,North,0,1.0,2.0,91,0.00,,,-99.99,WeatherLink 5.7,2013-04-01 05:31:00,
2013-04-01 01:41:00,43.0,40.6,29.68,WNW,292,0.0,2.0,91,0.00,,,-99.99,WeatherLink 5.7,2013-04-01 05:41:00,
2013-04-01 01:51:00,42.5,39.8,29.68,WNW,292,0.0,2.0,90,0.00,,,-99.99,WeatherLink 5.7,2013-04-01 05:51:00,
2013-04-01 02:01:00,42.0,39.3,29.69,North,-999,0.0,0.0,90,0.00,,,-99.99,WeatherLink 5.7,2013-04-01 06:01:00,
2013-04-01 02:12:00,41.6,38.9,29.68,North,-999,0.0,0.0,90,0.00,,,-99.99,WeatherLink 5.7,2013-04-01 06:12:00,
2013-04-01 02:22:00,41.2,38.8,29.69,WNW,292,0.0,2.0,91,0.00,,,-99.99,WeatherLink 5.7,2013-04-01 06:22:00,
2013-04-01 02:32:00,40.9,38.5,29.71,North,0,0.0,2.0,91,0.00,,,-99.99,WeatherLink 5.7,2013-04-01 06:32:00,
2013-04-01 02:41:00,40.6,38.2,29.70,SSW,202,0.0,3.0,91,0.00,,,-99.99,WeatherLink 5.7,2013-04-01 06:41:00,
2013-04-01 02:52:00,40.8,38.7,29.70,SSW,202,1.0,6.0,92,0.00,,,-99.99,WeatherLink 5.7,2013-04-01 06:52:00,
2013-04-01 03:02:00,41.6,39.4,29.70,West,270,0.0,4.0,92,0.00,,,-99.99,WeatherLink 5.7,2013-04-01 07:02:00,
2013-04-01 03:12:00,42.1,39.9,29.70,SSE,157,0.0,3.0,92,0.00,,,-99.99,WeatherLink 5.7,2013-04-01 07:12:00,
2013-04-01 03:22:00,42.1,39.9,29.70,NNE,22,0.0,3.0,92,0.00,,,-99.99,WeatherLink 5.7,2013-04-01 07:22:00,
2013-04-01 03:32:00,41.7,39.5,29.69,NNE,22,0.0,3.0,92,0.00,,,-99.99,WeatherLink 5.7,2013-04-01 07:32:00,
2013-04-01 03:42:00,41.8,39.6,29.69,NW,315,1.0,3.0,92,0.00,,,-99.99,WeatherLink 5.7,2013-04-01 07:42:00,
2013-04-01 03:52:00,42.2,40.3,29.69,North,0,1.0,4.0,93,0.00,,,-99.99,WeatherLink 5.7,2013-04-01 07:52:00,
2013-04-01 04:02:00,42.4,40.2,29.70,North,0,1.0,4.0,92,0.00,,,-99.99,WeatherLink 5.7,2013-04-01 08:02:00,
2013-04-01 04:12:00,42.5,40.3,29.70,North,0,0.0,2.0,92,0.00,,,-99.99,WeatherLink 5.7,2013-04-01 08:12:00,
2013-04-01 04:22:00,42.2,40.0,29.69,NNE,22,0.0,3.0,92,0.00,,,-99.99,WeatherLink 5.7,2013-04-01 08:22:00,
2013-04-01 04:32:00,41.8,39.6,29.70,North,0,0.0,4.0,92,0.00,,,-99.99,WeatherLink 5.7,2013-04-01 08:32:00,
2013-04-01 04:41:00,41.5,39.6,29.70,West,270,0.0,3.0,93,0.00,,,-99.99,WeatherLink 5.7,2013-04-01 08:41:00,
2013-04-01 04:51:00,41.6,39.7,29.70,SE,135,0.0,2.0,93,0.00,,,-99.99,WeatherLink 5.7,2013-04-01 08:51:00,
2013-04-01 05:02:00,41.6,39.7,29.71,SE,135,0.0,3.0,93,0.00,,,-99.99,WeatherLink 5.7,2013-04-01 09:02:00,
2013-04-01 05:12:00,41.5,39.6,29.70,SE,135,0.0,1.0,93,0.00,,,-99.99,WeatherLink 5.7,2013-04-01 09:12:00,
2013-04-01 05:22:00,41.5,39.3,29.70,SE,135,0.0,1.0,92,0.00,,,-99.99,WeatherLink 5.7,2013-04-01 09:22:00,
2013-04-01 05:32:00,41.7,39.8,29.70,North,0,0.0,3.0,93,0.00,,,-99.99,WeatherLink 5.7,2013-04-01 09:32:00,
2013-04-01 05:42:00,41.8,39.9,29.70,NNE,22,0.0,1.0,93,0.00,,,-99.99,WeatherLink 5.7,2013-04-01 09:42:00,
2013-04-01 05:52:00,41.9,40.0,29.70,SW,225,1.0,5.0,93,0.00,,,-99.99,WeatherLink 5.7,2013-04-01 09:52:00,
2013-04-01 06:02:00,41.7,39.5,29.70,ESE,112,0.0,5.0,92,0.00,,,-99.99,WeatherLink 5.7,2013-04-01 10:02:00,
2013-04-01 06:12:00,41.3,39.2,29.71,ESE,112,0.0,2.0,92,0.00,,,-99.99,WeatherLink 5.7,2013-04-01 10:12:00,
2013-04-01 06:22:00,41.0,38.9,29.70,East,90,0.0,2.0,92,0.00,,,-99.99,WeatherLink 5.7,2013-04-01 10:22:00,
2013-04-01 06:32:00,41.0,38.9,29.70,East,90,0.0,2.0,92,0.00,,,-99.99,WeatherLink 5.7,2013-04-01 10:32:00,
2013-04-01 06:42:00,40.9,38.8,29.69,East,90,0.0,1.0,92,0.00,,,-99.99,WeatherLink 5.7,2013-04-01 10:42:00,
2013-04-01 06:52:00,40.8,38.9,29.70,East,90,0.0,2.0,93,0.00,,,-99.99,WeatherLink 5.7,2013-04-01 10:52:00,
2013-04-01 07:02:00,40.8,38.9,29.70,SE,135,0.0,2.0,93,0.00,,,-99.99,WeatherLink 5.7,2013-04-01 11:02:00,
2013-04-01 07:11:00,40.9,39.0,29.71,SE,135,0.0,2.0,93,0.00,,,-99.99,WeatherLink 5.7,2013-04-01 11:11:00,
2013-04-01 07:22:00,41.3,39.4,29.70,NNW,337,0.0,2.0,93,0.00,,,-99.99,WeatherLink 5.7,2013-04-01 11:22:00,
2013-04-01 07:32:00,41.7,39.8,29.70,ENE,67,0.0,2.0,93,0.00,,,-99.99,WeatherLink 5.7,2013-04-01 11:32:00,
2013-04-01 07:42:00,42.1,40.2,29.71,ENE,67,0.0,2.0,93,0.00,,,-99.99,WeatherLink 5.7,2013-04-01 11:42:00,
2013-04-01 07:52:00,42.5,40.6,29.70,East,90,0.0,1.0,93,0.00,,,-99.99,WeatherLink 5.7,2013-04-01 11:52:00,
2013-04-01 08:02:00,42.8,40.9,29.70,East,90,0.0,2.0,93,0.00,,,-99.99,WeatherLink 5.7,2013-04-01 12:02:00,
2013-04-01 08:12:00,43.2,41.3,29.70,ESE,112,0.0,2.0,93,0.00,,,-99.99,WeatherLink 5.7,2013-04-01 12:12:00,
2013-04-01 08:22:00,43.8,42.2,29.70,NE,45,0.0,3.0,94,0.00,,,-99.99,WeatherLink 5.7,2013-04-01 12:22:00,
2013-04-01 08:32:00,44.4,42.5,29.70,North,0,0.0,3.0,93,0.00,,,-99.99,WeatherLink 5.7,2013-04-01 12:32:00,
2013-04-01 08:42:00,44.7,42.5,29.70,NE,45,0.0,2.0,92,0.00,,,-99.99,WeatherLink 5.7,2013-04-01 12:42:00,
2013-04-01 08:51:00,45.7,42.9,29.70,NNW,337,1.0,4.0,90,0.00,,,-99.99,WeatherLink 5.7,2013-04-01 12:51:00,
2013-04-01 09:02:00,46.9,43.5,29.70,NNW,337,1.0,6.0,88,0.00,,,-99.99,WeatherLink 5.7,2013-04-01 13:02:00,
2013-04-01 09:12:00,47.8,43.5,29.70,NNE,22,1.0,4.0,85,0.00,,,-99.99,WeatherLink 5.7,2013-04-01 13:12:00,
2013-04-01 09:21:00,48.3,43.4,29.70,NNW,337,1.0,4.0,83,0.00,,,-99.99,WeatherLink 5.7,2013-04-01 13:21:00,
2013-04-01 09:30:00,48.4,43.2,29.70,NNW,337,1.0,4.0,82,0.00,,,-99.99,WeatherLink 5.7,2013-04-01 13:30:00,
2013-04-01 09:40:00,48.9,43.3,29.69,North,0,1.0,4.0,81,0.00,,,-99.99,WeatherLink 5.7,2013-04-01 13:40:00,
2013-04-01 09:50:00,49.4,43.2,29.69,North,0,2.0,5.0,79,0.00,,,-99.99,WeatherLink 5.7,2013-04-01 13:50:00,
2013-04-01 10:00:00,49.6,43.4,29.69,North,0,1.0,5.0,79,0.00,,,-99.99,WeatherLink 5.7,2013-04-01 14:00:00,
2013-04-01 10:10:00,50.2,43.3,29.70,North,0,1.0,4.0,77,0.00,,,-99.99,WeatherLink 5.7,2013-04-01 14:10:00,
2013-04-01 10:20:00,50.8,43.2,29.69,North,0,1.0,8.0,75,0.00,,,-99.99,WeatherLink 5.7,2013-04-01 14:20:00,
2013-04-01 10:30:00,51.8,43.8,29.69,North,0,2.0,5.0,74,0.00,,,-99.99,WeatherLink 5.7,2013-04-01 14:30:00,
2013-04-01 10:40:00,53.4,44.2,29.68,North,0,1.0,5.0,71,0.00,,,-99.99,WeatherLink 5.7,2013-04-01 14:40:00,
2013-04-01 10:50:00,54.7,44.7,29.68,North,0,2.0,7.0,69,0.00,,,-99.99,WeatherLink 5.7,2013-04-01 14:50:00,
2013-04-01 11:00:00,55.5,44.7,29.68,North,0,2.0,7.0,67,0.00,,,-99.99,WeatherLink 5.7,2013-04-01 15:00:00,
2013-04-01 11:10:00,56.2,44.6,29.67,NNW,337,2.0,6.0,65,0.00,,,-99.99,WeatherLink 5.7,2013-04-01 15:10:00,
2013-04-01 11:20:00,57.4,45.3,29.67,North,0,2.0,6.0,64,0.00,,,-99.99,WeatherLink 5.7,2013-04-01 15:20:00,
2013-04-01 11:30:00,58.1,44.3,29.67,North,0,3.0,8.0,60,0.00,,,-99.99,WeatherLink 5.7,2013-04-01 15:30:00,
2013-04-01 11:40:00,58.3,44.0,29.67,North,0,3.0,8.0,59,0.00,,,-99.99,WeatherLink 5.7,2013-04-01 15:40:00,
2013-04-01 11:50:00,59.1,44.3,29.67,North,0,3.0,9.0,58,0.00,,,-99.99,WeatherLink 5.7,2013-04-01 15:50:00,
2013-04-01 12:00:00,60.0,44.3,29.67,NNW,337,3.0,8.0,56,0.00,,,-99.99,WeatherLink 5.7,2013-04-01 16:00:00,
2013-04-01 12:10:00,60.2,44.0,29.67,North,0,3.0,10.0,55,0.00,,,-99.99,WeatherLink 5.7,2013-04-01 16:10:00,
2013-04-01 12:20:00,59.6,42.9,29.67,North,0,3.0,8.0,54,0.00,,,-99.99,WeatherLink 5.7,2013-04-01 16:20:00,
2013-04-01 12:30:00,60.2,42.5,29.66,North,0,2.0,6.0,52,0.00,,,-99.99,WeatherLink 5.7,2013-04-01 16:30:00,
2013-04-01 12:40:00,61.1,42.3,29.66,NNW,337,3.0,7.0,50,0.00,,,-99.99,WeatherLink 5.7,2013-04-01 16:40:00,
2013-04-01 12:50:00,62.2,43.3,29.66,North,0,3.0,7.0,50,0.00,,,-99.99,WeatherLink 5.7,2013-04-01 16:50:00,
2013-04-01 13:00:00,63.0,43.0,29.65,North,0,3.0,8.0,48,0.00,,,-99.99,WeatherLink 5.7,2013-04-01 17:00:00,
2013-04-01 13:10:00,60.7,45.8,29.67,NNW,337,3.0,8.0,58,0.00,,,-99.99,WeatherLink 5.7,2013-04-01 17:10:00,
2013-04-01 13:22:00,56.6,45.4,29.67,North,0,3.0,10.0,66,0.01,,,-99.99,WeatherLink 5.7,2013-04-01 17:22:00,
2013-04-01 13:32:00,55.8,44.2,29.66,North,0,2.0,5.0,65,0.01,,,-99.99,WeatherLink 5.7,2013-04-01 17:32:00,
2013-04-01 13:41:00,57.8,44.0,29.67,NNW,337,3.0,8.0,60,0.01,,,-99.99,WeatherLink 5.7,2013-04-01 17:41:00,
2013-04-01 13:51:00,59.0,42.4,29.66,NNW,337,4.0,10.0,54,0.01,,,-99.99,WeatherLink 5.7,2013-04-01 17:51:00,
2013-04-01 14:02:00,59.5,41.9,29.67,NW,315,5.0,13.0,52,0.01,,,-99.99,WeatherLink 5.7,2013-04-01 18:02:00,
2013-04-01 14:11:00,59.9,41.7,29.66,NW,315,5.0,15.0,51,0.01,,,-99.99,WeatherLink 5.7,2013-04-01 18:11:00,
2013-04-01 14:21:00,59.5,41.3,29.66,NW,315,4.0,9.0,51,0.00,,,-99.99,WeatherLink 5.7,2013-04-01 18:21:00,
2013-04-01 14:31:00,58.6,40.5,29.67,NW,315,4.0,9.0,51,0.00,,,-99.99,WeatherLink 5.7,2013-04-01 18:31:00,
2013-04-01 14:41:00,57.8,38.8,29.67,NNW,337,4.0,9.0,49,0.00,,,-99.99,WeatherLink 5.7,2013-04-01 18:41:00,
2013-04-01 14:51:00,56.8,39.4,29.69,NNW,337,4.0,10.0,52,0.00,,,-99.99,WeatherLink 5.7,2013-04-01 18:51:00,
2013-04-01 15:01:00,56.1,39.2,29.69,NW,315,5.0,10.0,53,0.00,,,-99.99,WeatherLink 5.7,2013-04-01 19:01:00,
2013-04-01 15:12:00,54.8,38.5,29.70,NW,315,5.0,9.0,54,0.00,,,-99.99,WeatherLink 5.7,2013-04-01 19:12:00,
2013-04-01 15:22:00,54.0,37.2,29.69,NW,315,5.0,12.0,53,0.00,,,-99.99,WeatherLink 5.7,2013-04-01 19:22:00,
2013-04-01 15:32:00,54.8,36.0,29.69,NW,315,5.0,10.0,49,0.00,,,-99.99,WeatherLink 5.7,2013-04-01 19:32:00,
2013-04-01 15:41:00,55.7,36.3,29.68,WNW,292,4.0,9.0,48,0.00,,,-99.99,WeatherLink 5.7,2013-04-01 19:41:00,
2013-04-01 15:51:00,54.1,35.3,29.69,West,270,3.0,7.0,49,0.00,,,-99.99,WeatherLink 5.7,2013-04-01 19:51:00,
2013-04-01 16:01:00,52.6,36.4,29.70,NNW,337,4.0,9.0,54,0.00,,,-99.99,WeatherLink 5.7,2013-04-01 20:01:00,
2013-04-01 16:11:00,50.4,37.0,29.73,North,0,3.0,9.0,60,0.01,,,-99.99,WeatherLink 5.7,2013-04-01 20:11:00,
2013-04-01 16:21:00,48.9,36.4,29.72,NW,315,3.0,6.0,62,0.01,,,-99.99,WeatherLink 5.7,2013-04-01 20:21:00,
2013-04-01 16:31:00,48.0,36.0,29.72,NW,315,4.0,8.0,63,0.01,,,-99.99,WeatherLink 5.7,2013-04-01 20:31:00,
2013-04-01 16:41:00,46.9,35.7,29.72,NW,315,3.0,8.0,65,0.01,,,-99.99,WeatherLink 5.7,2013-04-01 20:41:00,
2013-04-01 16:51:00,46.6,35.5,29.71,NW,315,3.0,7.0,65,0.01,,,-99.99,WeatherLink 5.7,2013-04-01 20:51:00,
2013-04-01 17:01:00,46.8,34.9,29.72,NW,315,2.0,6.0,63,0.01,,,-99.99,WeatherLink 5.7,2013-04-01 21:01:00,
2013-04-01 17:11:00,46.8,34.5,29.71,NW,315,3.0,6.0,62,0.00,,,-99.99,WeatherLink 5.7,2013-04-01 21:11:00,
2013-04-01 17:21:00,46.7,34.0,29.73,NW,315,3.0,7.0,61,0.00,,,-99.99,WeatherLink 5.7,2013-04-01 21:21:00,
2013-04-01 17:31:00,46.8,34.5,29.72,NW,315,2.0,6.0,62,0.00,,,-99.99,WeatherLink 5.7,2013-04-01 21:31:00,
2013-04-01 17:42:00,47.6,32.7,29.72,NW,315,3.0,7.0,56,0.00,,,-99.99,WeatherLink 5.7,2013-04-01 21:42:00,
2013-04-01 17:51:00,48.0,30.2,29.72,WNW,292,3.0,8.0,50,0.00,,,-99.99,WeatherLink 5.7,2013-04-01 21:51:00,
2013-04-01 18:02:00,48.3,27.4,29.73,NNW,337,4.0,9.0,44,0.00,,,-99.99,WeatherLink 5.7,2013-04-01 22:02:00,
2013-04-01 18:11:00,48.1,25.5,29.72,NW,315,6.0,15.0,41,0.00,,,-99.99,WeatherLink 5.7,2013-04-01 22:11:00,
2013-04-01 18:21:00,47.7,25.1,29.73,NW,315,5.0,13.0,41,0.00,,,-99.99,WeatherLink 5.7,2013-04-01 22:21:00,
2013-04-01 18:31:00,47.1,24.0,29.74,NW,315,5.0,13.0,40,0.00,,,-99.99,WeatherLink 5.7,2013-04-01 22:31:00,
2013-04-01 18:41:00,46.4,23.9,29.74,NW,315,4.0,11.0,41,0.00,,,-99.99,WeatherLink 5.7,2013-04-01 22:41:00,
2013-04-01 18:51:00,45.8,22.2,29.74,NW,315,4.0,9.0,39,0.00,,,-99.99,WeatherLink 5.7,2013-04-01 22:51:00,
2013-04-01 19:02:00,45.3,21.8,29.75,NW,315,4.0,11.0,39,0.00,,,-99.99,WeatherLink 5.7,2013-04-01 23:02:00,
2013-04-01 19:11:00,44.9,20.2,29.75,NW,315,4.0,12.0,37,0.00,,,-99.99,WeatherLink 5.7,2013-04-01 23:11:00,
2013-04-01 19:22:00,44.4,20.3,29.75,WNW,292,3.0,10.0,38,0.00,,,-99.99,WeatherLink 5.7,2013-04-01 23:22:00,
2013-04-01 19:31:00,43.7,19.1,29.76,NW,315,3.0,6.0,37,0.00,,,-99.99,WeatherLink 5.7,2013-04-01 23:31:00,
2013-04-01 19:41:00,43.2,18.0,29.76,NW,315,3.0,9.0,36,0.00,,,-99.99,WeatherLink 5.7,2013-04-01 23:41:00,
2013-04-01 19:51:00,42.9,17.7,29.78,NW,315,4.0,9.0,36,0.00,,,-99.99,WeatherLink 5.7,2013-04-01 23:51:00,
2013-04-01 20:01:00,42.5,18.0,29.78,NW,315,5.0,9.0,37,0.00,,,-99.99,WeatherLink 5.7,2013-04-02 00:01:00,
2013-04-01 20:11:00,41.8,18.0,29.80,NW,315,5.0,11.0,38,0.00,,,-99.99,WeatherLink 5.7,2013-04-02 00:11:00,
2013-04-01 20:21:00,41.1,18.0,29.81,WNW,292,5.0,10.0,39,0.00,,,-99.99,WeatherLink 5.7,2013-04-02 00:21:00,
2013-04-01 20:32:00,40.4,16.8,29.82,NW,315,6.0,13.0,38,0.00,,,-99.99,WeatherLink 5.7,2013-04-02 00:32:00,
2013-04-01 20:41:00,39.8,16.8,29.82,NW,315,6.0,13.0,39,0.00,,,-99.99,WeatherLink 5.7,2013-04-02 00:41:00,
2013-04-01 20:52:00,39.2,15.7,29.84,NW,315,5.0,15.0,38,0.00,,,-99.99,WeatherLink 5.7,2013-04-02 00:52:00,
2013-04-01 21:01:00,38.6,15.1,29.84,WNW,292,5.0,13.0,38,0.00,,,-99.99,WeatherLink 5.7,2013-04-02 01:01:00,
2013-04-01 21:11:00,38.1,15.9,29.85,NW,315,5.0,10.0,40,0.00,,,-99.99,WeatherLink 5.7,2013-04-02 01:11:00,
2013-04-01 21:21:00,37.7,13.7,29.86,NW,315,6.0,11.0,37,0.00,,,-99.99,WeatherLink 5.7,2013-04-02 01:21:00,
2013-04-01 21:31:00,37.3,14.0,29.86,NW,315,4.0,11.0,38,0.00,,,-99.99,WeatherLink 5.7,2013-04-02 01:31:00,
2013-04-01 21:41:00,36.8,13.5,29.87,NW,315,4.0,8.0,38,0.00,,,-99.99,WeatherLink 5.7,2013-04-02 01:41:00,
2013-04-01 21:51:00,36.5,12.7,29.87,NW,315,4.0,11.0,37,0.00,,,-99.99,WeatherLink 5.7,2013-04-02 01:51:00,
2013-04-01 22:01:00,36.2,12.4,29.88,NW,315,4.0,10.0,37,0.00,,,-99.99,WeatherLink 5.7,2013-04-02 02:01:00,
2013-04-01 22:11:00,35.8,12.0,29.88,NW,315,5.0,10.0,37,0.00,,,-99.99,WeatherLink 5.7,2013-04-02 02:11:00,
2013-04-01 22:21:00,35.5,11.1,29.89,NW,315,5.0,9.0,36,0.00,,,-99.99,WeatherLink 5.7,2013-04-02 02:21:00,
2013-04-01 22:31:00,35.2,11.5,29.89,NW,315,4.0,10.0,37,0.00,,,-99.99,WeatherLink 5.7,2013-04-02 02:31:00,
2013-04-01 22:41:00,35.0,11.3,29.89,NW,315,5.0,11.0,37,0.00,,,-99.99,WeatherLink 5.7,2013-04-02 02:41:00,
2013-04-01 22:51:00,34.8,11.1,29.89,NW,315,5.0,11.0,37,0.00,,,-99.99,WeatherLink 5.7,2013-04-02 02:51:00,
2013-04-01 23:01:00,34.6,11.6,29.89,NW,315,4.0,9.0,38,0.00,,,-99.99,WeatherLink 5.7,2013-04-02 03:01:00,
2013-04-01 23:11:00,34.3,11.3,29.89,NW,315,4.0,8.0,38,0.00,,,-99.99,WeatherLink 5.7,2013-04-02 03:11:00,
2013-04-01 23:21:00,34.0,12.2,29.90,NW,315,4.0,8.0,40,0.00,,,-99.99,WeatherLink 5.7,2013-04-02 03:21:00,
2013-04-01 23:31:00,33.6,11.8,29.90,NW,315,3.0,8.0,40,0.00,,,-99.99,WeatherLink 5.7,2013-04-02 03:31:00,
2013-04-01 23:41:00,33.3,11.0,29.90,NW,315,4.0,9.0,39,0.00,,,-99.99,WeatherLink 5.7,2013-04-02 03:41:00,
2013-04-01 23:51:00,33.2,11.5,29.91,NW,315,4.0,9.0,40,0.00,,,-99.99,WeatherLink 5.7,2013-04-02 03:51:00,